Date_and_time,latitude,longitude,wind_speed,RelWindDirFrom,WindDirFrom,air_pressure,air_temperature,relative_humidity,Temp,platform_speed_wrt_ground,air_pressure_at_mean_sea_level,platform_orientation
2019-03-02 23:40,50.630435,-96.98076,5.7,7.1,239,1002.26,-19.4,52,0.39,0.0,1032.63,311.7
2019-03-02 23:50,50.630435,-96.980765,5.3,7.7,238,1002.16,-19.6,52,0.39,0.0,1032.54,311.7
2019-03-03 00:00,50.6304383333333,-96.9807666666667,4.9,7.3,237,1002.17,-19.9,52,0.40,0.0,1032.58,90.0
2019-03-03 00:00,50.6304383333333,-96.9807666666667,4.6,4.6,237,1002.14,-20.0,52,0.40,0.0,1032.58,360.0
2019-03-03 00:10,50.6304383333333,-96.9807683333333,4.7,6.9,238,1002.12,-20.0,53,0.40,0.0,1032.57,360.0
2019-03-03 00:20,50.63044,-96.98077,4.5,6.1,224,1002.11,-20.3,54,0.40,0.0,1032.58,360.0
2019-03-03 00:30,50.63044,-96.98077,5.7,7.4,219,1001.99,-20.5,55,0.40,0.0,1032.47,360.0
2019-03-03 00:40,50.6304416666667,-96.98077,5.6,8.3,224,1001.90,-20.6,56,0.40,0.0,1032.39,360.0
2019-03-03 00:50,50.6304433333333,-96.9807683333333,5.2,7.3,231,1001.82,-20.6,56,0.41,0.0,1032.31,360.0
2019-03-03 01:00,50.6304433333333,-96.9807683333333,4.8,6.6,234,1001.78,-20.7,56,0.41,0.0,1032.29,38.0
2019-03-03 01:10,50.6304433333333,-96.9807683333333,3.8,5.0,231,1001.68,-20.9,57,0.40,0.0,1032.20,38.0
2019-03-03 01:20,50.6304433333333,-96.9807683333333,4.0,5.8,223,1001.65,-21.0,57,0.40,0.0,1032.19,38.0
2019-03-03 01:30,50.63046,-96.98078,5.4,7.0,219,1001.56,-21.1,57,0.41,0.0,1032.12,38.0
2019-03-03 01:40,50.6304283333333,-96.980735,4.9,6.5,217,1001.42,-21.3,58,0.41,0.0,1032.00,38.0
2019-03-03 01:50,50.6304433333333,-96.9807583333333,4.0,5.5,209,1001.42,-21.6,59,0.42,0.0,1032.02,38.0
2019-03-03 02:00,50.6304366666667,-96.9807666666667,4.7,6.3,212,1001.29,-21.7,60,0.41,0.0,1031.90,360.0
2019-03-03 02:10,50.6304416666667,-96.9807716666667,5.5,7.6,219,1001.18,-21.7,61,0.42,0.0,1031.80,360.0
2019-03-03 02:20,50.6304416666667,-96.9807666666667,6.1,7.8,220,1001.07,-21.9,62,0.42,0.0,1031.71,360.0
2019-03-03 02:30,50.6304433333333,-96.9807683333333,5.8,7.6,219,1000.99,-22.0,63,0.42,0.0,1031.65,360.0
2019-03-03 02:40,50.630445,-96.9807683333333,5.8,7.8,223,1000.87,-22.2,63,0.42,0.0,1031.54,360.0
2019-03-03 02:50,50.6304466666667,-96.9807666666667,5.6,7.8,234,1000.87,-22.3,64,0.42,0.0,1031.55,360.0
2019-03-03 03:00,50.6304466666667,-96.9807666666667,6.3,9.5,242,1000.86,-22.2,65,0.42,0.0,1031.54,38.0
2019-03-03 03:10,50.6304483333333,-96.9807666666667,6.1,8.6,242,1000.80,-22.3,67,0.42,0.0,1031.50,38.0
2019-03-03 03:20,50.630455,-96.980785,5.6,9.6,245,1000.76,-22.6,69,0.41,0.0,1031.48,38.0
2019-03-03 03:30,50.6304516666667,-96.98078,4.4,6.4,252,1000.74,-22.9,71,0.41,0.0,1031.48,38.0
2019-03-03 03:40,50.6304533333333,-96.9807683333333,5.5,8.5,254,1000.69,-22.7,71,0.41,0.0,1031.44,38.0
2019-03-03 03:50,50.630455,-96.9807633333333,5.6,8.0,255,1000.65,-22.6,69,0.41,0.0,1031.39,38.0
2019-03-03 04:00,50.6304566666667,-96.980765,4.5,7.2,252,1000.56,-22.7,70,0.41,0.0,1031.31,360.0
2019-03-03 04:10,50.630425,-96.980765,3.7,6.2,247,1000.45,-22.9,72,0.41,0.0,1031.23,360.0
2019-03-03 04:20,50.6304533333333,-96.9807683333333,4.3,5.6,241,1000.37,-23.3,73,0.41,0.0,1031.18,360.0
2019-03-03 04:30,50.6304566666667,-96.9807666666667,4.4,5.7,242,1000.33,-23.4,74,0.41,0.0,1031.15,360.0
2019-03-03 04:40,50.630455,-96.9807666666667,5.0,6.4,245,1000.24,-23.5,74,0.41,0.0,1031.07,360.0
2019-03-03 04:50,50.6304566666667,-96.9807683333333,5.1,6.3,241,1000.21,-23.8,74,0.41,0.0,1031.05,360.0
2019-03-03 05:00,50.6304583333333,-96.98077,5.1,7.0,248,1000.16,-23.9,74,0.41,0.0,1031.01,360.0
2019-03-03 05:10,50.63045,-96.980755,5.3,7.0,250,1000.09,-23.9,73,0.41,0.0,1030.96,360.0
2019-03-03 05:20,50.63045,-96.9807633333333,5.6,8.0,254,999.94,-24.1,73,0.41,0.0,1030.83,360.0
2019-03-03 05:30,50.63045,-96.98077,6.0,8.4,256,999.87,-24.2,72,0.41,0.0,1030.75,360.0
2019-03-03 05:40,50.6304516666667,-96.98077,5.7,8.1,253,999.85,-24.3,72,0.40,0.0,1030.74,360.0
2019-03-03 05:50,50.6304383333333,-96.9807683333333,5.1,7.9,249,999.86,-24.5,71,0.40,0.0,1030.77,360.0
2019-03-03 06:00,50.6304633333333,-96.9807716666667,5.2,8.3,247,999.78,-24.8,71,0.40,0.0,1030.72,360.0
2019-03-03 06:10,50.630455,-96.9807616666667,5.4,7.6,245,999.68,-24.9,71,0.39,0.0,1030.65,360.0
2019-03-03 06:20,50.6304533333333,-96.980765,6.0,7.8,253,999.59,-24.9,71,0.39,0.0,1030.56,360.0
2019-03-03 06:30,50.6304566666667,-96.9807666666667,6.6,9.2,255,999.46,-25.0,71,0.39,0.0,1030.43,360.0
2019-03-03 06:40,50.6304566666667,-96.9807683333333,6.5,9.7,256,999.45,-25.0,71,0.40,0.0,1030.44,360.0
2019-03-03 06:50,50.6304566666667,-96.9807683333333,6.9,9.0,255,999.43,-25.0,71,0.40,0.0,1030.43,360.0
2019-03-03 07:00,50.6304566666667,-96.9807716666667,6.3,9.6,263,999.30,-25.1,71,0.39,0.0,1030.30,270.0
2019-03-03 07:10,50.6304516666667,-96.9807616666667,6.1,8.5,263,999.21,-25.1,71,0.38,0.0,1030.22,270.0
2019-03-03 07:20,50.63046,-96.9807533333333,6.6,9.5,257,999.20,-25.2,71,0.38,0.0,1030.23,270.0
2019-03-03 07:30,50.6304616666667,-96.9807533333333,6.4,8.6,254,999.23,-25.5,72,0.38,0.0,1030.28,270.0
2019-03-03 07:40,50.6304616666667,-96.9807566666667,6.4,8.2,256,999.26,-25.8,72,0.38,0.0,1030.35,270.0
2019-03-03 07:50,50.63046,-96.98076,6.4,8.8,262,999.17,-26.0,72,0.38,0.0,1030.28,270.0
2019-03-03 08:00,50.63046,-96.9807583333333,6.0,8.0,259,999.10,-26.0,72,0.38,0.0,1030.22,90.0
2019-03-03 08:10,50.6304616666667,-96.980775,6.2,8.2,255,999.01,-26.2,73,0.38,0.0,1030.13,90.0
2019-03-03 08:20,50.63046,-96.9807733333333,6.9,8.8,258,998.88,-26.3,73,0.38,0.0,1030.01,90.0
2019-03-03 08:30,50.6304583333333,-96.9807733333333,6.4,8.8,260,998.81,-26.4,73,0.37,0.0,1029.95,90.0
2019-03-03 08:40,50.6304683333333,-96.9807566666667,6.7,9.3,261,998.72,-26.5,73,0.37,0.0,1029.86,90.0
2019-03-03 08:50,50.6304683333333,-96.9807633333333,6.6,8.9,263,998.72,-26.5,73,0.37,0.0,1029.87,90.0
2019-03-03 09:00,50.6304483333333,-96.9807483333333,6.2,9.3,266,998.76,-26.5,73,0.36,0.0,1029.91,148.9
2019-03-03 09:10,50.63045,-96.980775,5.1,7.3,264,998.71,-26.5,72,0.36,0.0,1029.86,148.9
2019-03-03 09:20,50.6304533333333,-96.9807766666667,6.2,8.8,257,998.64,-26.5,72,0.36,0.0,1029.81,148.9
2019-03-03 09:30,50.6304533333333,-96.9807733333333,6.5,9.2,256,998.57,-26.7,72,0.35,0.0,1029.78,148.9
2019-03-03 09:40,50.6304516666667,-96.9807716666667,6.2,8.2,257,998.49,-26.8,72,0.34,0.0,1029.70,148.9
2019-03-03 09:50,50.63045,-96.98077,5.3,8.1,251,998.42,-26.8,71,0.34,0.0,1029.64,148.9
2019-03-03 10:00,50.63045,-96.9807683333333,5.3,7.0,241,998.25,-27.1,70,0.34,0.0,1029.49,90.0
2019-03-03 10:10,50.6304516666667,-96.98076,5.0,6.9,244,998.18,-27.3,70,0.33,0.0,1029.44,90.0
2019-03-03 10:20,50.63045,-96.98077,5.0,7.0,248,998.11,-27.3,70,0.33,0.0,1029.38,90.0
2019-03-03 10:30,50.6304483333333,-96.98077,5.6,7.1,241,997.96,-27.5,69,0.33,0.0,1029.24,90.0
2019-03-03 10:40,50.6304366666667,-96.9807616666667,5.5,7.7,249,997.91,-27.6,69,0.33,0.0,1029.19,90.0
2019-03-03 10:50,50.6304383333333,-96.9807666666667,5.6,8.1,245,997.96,-27.6,69,0.32,0.0,1029.25,90.0
2019-03-03 11:00,50.6304433333333,-96.9807683333333,5.3,7.4,246,998.06,-27.7,68,0.32,0.0,1029.36,360.0
2019-03-03 11:10,50.630445,-96.98077,4.7,7.3,247,998.08,-27.8,68,0.32,0.0,1029.38,360.0
2019-03-03 11:20,50.6304466666667,-96.98077,4.9,6.6,241,997.94,-27.9,68,0.32,0.0,1029.26,360.0
2019-03-03 11:30,50.6304483333333,-96.98077,5.7,8.3,242,997.87,-27.9,68,0.32,0.0,1029.18,360.0
2019-03-03 11:40,50.6304483333333,-96.98077,6.0,8.2,245,997.76,-27.9,68,0.31,0.0,1029.08,360.0
2019-03-03 11:50,50.6304483333333,-96.9807683333333,5.3,7.3,244,997.68,-27.9,68,0.31,0.0,1029.02,360.0
2019-03-03 12:00,50.6304483333333,-96.9807683333333,5.5,7.4,240,997.56,-27.9,68,0.31,0.0,1028.90,270.0
2019-03-03 12:10,50.6304433333333,-96.98077,5.9,8.3,239,997.44,-27.9,67,0.30,0.0,1028.79,270.0
2019-03-03 12:20,50.6304466666667,-96.9807766666667,5.8,7.6,237,997.31,-27.9,67,0.30,0.0,1028.66,270.0
2019-03-03 12:30,50.630445,-96.980775,5.5,7.9,227,997.09,-28.0,67,0.30,0.0,1028.45,270.0
2019-03-03 12:40,50.6304483333333,-96.9807766666667,5.4,6.9,225,997.00,-28.1,68,0.30,0.0,1028.36,270.0
2019-03-03 12:50,50.630485,-96.980795,5.2,7.5,224,997.02,-28.1,68,0.30,0.0,1028.39,270.0
2019-03-03 13:00,50.6304633333333,-96.9807783333333,5.5,7.3,228,996.94,-28.2,68,0.29,0.0,1028.31,310.6
2019-03-03 13:10,50.6304566666667,-96.980775,5.3,7.4,230,996.91,-28.3,68,0.29,0.0,1028.29,310.6
2019-03-03 13:20,50.630445,-96.9807666666667,5.4,7.2,230,996.90,-28.3,68,0.28,0.0,1028.28,310.6
2019-03-03 13:30,50.6304466666667,-96.9807683333333,5.6,7.7,229,996.81,-28.2,67,0.28,0.0,1028.19,310.6
2019-03-03 13:40,50.6304466666667,-96.9807666666667,5.8,9.1,235,996.76,-28.1,67,0.28,0.0,1028.13,310.6
2019-03-03 13:50,50.6304466666667,-96.9807666666667,6.7,9.1,236,996.73,-28.0,67,0.28,0.0,1028.09,310.6
2019-03-03 14:00,50.63043,-96.9807733333333,6.4,8.7,238,996.74,-27.7,66,0.28,0.0,1028.09,203.5
2019-03-03 14:10,50.63044,-96.98078,6.5,9.1,235,996.68,-27.4,65,0.28,0.0,1028.00,203.5
2019-03-03 14:20,50.6304666666667,-96.9807633333333,6.6,9.1,232,996.57,-27.1,65,0.27,0.0,1027.87,203.5
2019-03-03 14:30,50.630455,-96.9807616666667,6.9,8.9,231,996.54,-26.9,65,0.27,0.0,1027.84,203.5
2019-03-03 14:40,50.63045,-96.9807616666667,7.0,10.7,232,996.53,-26.5,64,0.27,0.0,1027.80,203.5
2019-03-03 14:50,50.63045,-96.9807683333333,7.0,9.7,233,996.47,-26.0,63,0.27,0.0,1027.72,203.5
2019-03-03 15:00,50.6304483333333,-96.9807666666667,6.7,9.4,236,996.37,-25.6,63,0.26,0.0,1027.59,0.0
2019-03-03 15:10,50.6304483333333,-96.9807683333333,8.0,10.8,232,996.32,-25.2,62,0.26,0.0,1027.52,0.0
2019-03-03 15:20,50.6304483333333,-96.9807716666667,8.0,10.4,233,996.21,-25.0,62,0.26,0.0,1027.38,0.0
2019-03-03 15:30,50.6304466666667,-96.9807716666667,7.3,10.2,239,996.14,-24.6,62,0.26,0.0,1027.28,0.0
2019-03-03 15:40,50.6304483333333,-96.9807733333333,7.2,11.6,248,996.06,-24.0,61,0.26,0.0,1027.15,0.0
2019-03-03 15:50,50.6304483333333,-96.9807716666667,8.4,12.2,252,995.90,-23.3,61,0.26,0.0,1026.93,0.0
2019-03-03 16:00,50.6304483333333,-96.9807716666667,8.8,12.6,261,995.70,-22.8,61,0.26,0.0,1026.66,176.8
2019-03-03 16:10,50.6304483333333,-96.9807716666667,9.7,14.2,262,995.60,-22.7,61,0.26,0.0,1026.54,176.8
2019-03-03 16:20,50.6304483333333,-96.9807716666667,9.0,13.4,260,995.56,-22.4,61,0.25,0.0,1026.46,176.8
2019-03-03 16:30,50.6304483333333,-96.9807733333333,9.2,14.0,264,995.35,-22.2,61,0.25,0.0,1026.21,176.8
2019-03-03 16:40,50.6304483333333,-96.9807733333333,7.8,11.4,257,995.41,-22.1,61,0.25,0.0,1026.23,176.8
2019-03-03 16:50,50.6304483333333,-96.9807733333333,7.4,10.7,253,995.33,-21.8,61,0.25,0.0,1026.10,176.8
2019-03-03 17:00,50.6304466666667,-96.9807733333333,8.1,13.0,250,995.23,-21.6,61,0.25,0.0,1025.97,360.0
2019-03-03 17:10,50.6304466666667,-96.980775,7.6,10.8,250,995.09,-21.0,61,0.25,0.0,1025.78,360.0
2019-03-03 17:20,50.6304466666667,-96.9807733333333,7.2,11.0,242,995.04,-20.8,61,0.25,0.0,1025.69,360.0
2019-03-03 17:30,50.6304466666667,-96.980775,7.4,11.2,239,995.09,-20.2,60,0.25,0.0,1025.66,360.0
2019-03-03 17:40,50.6304466666667,-96.980775,7.4,12.0,252,995.04,-19.8,60,0.25,0.0,1025.55,360.0
2019-03-03 17:50,50.6304466666667,-96.9807733333333,8.1,11.7,257,994.97,-19.4,59,0.25,0.0,1025.42,360.0
2019-03-03 18:00,50.6304466666667,-96.9807733333333,8.1,11.7,252,995.04,-19.1,57,0.25,0.0,1025.46,270.0
2019-03-03 18:10,50.630435,-96.9807166666667,8.4,11.8,250,995.00,-19.1,56,0.25,0.0,1025.41,270.0
2019-03-03 18:20,50.6304416666667,-96.9807533333333,8.5,12.0,250,994.86,-18.9,55,0.26,0.0,1025.24,270.0
2019-03-03 18:30,50.6304433333333,-96.98076,7.8,11.2,250,994.79,-18.6,55,0.26,0.0,1025.14,270.0
2019-03-03 18:40,50.6304466666667,-96.9807616666667,8.0,11.3,240,994.78,-18.4,54,0.26,0.0,1025.09,270.0
2019-03-03 18:50,50.63044,-96.980755,7.4,10.4,249,994.67,-18.1,53,0.26,0.0,1024.95,270.0
2019-03-03 19:00,50.63044,-96.98076,7.7,11.9,247,994.53,-17.8,52,0.26,0.0,1024.75,119.2
2019-03-03 19:10,50.6304383333333,-96.9807433333333,8.6,13.3,247,994.48,-17.6,51,0.27,0.0,1024.68,119.2
2019-03-03 19:20,50.6304466666667,-96.98076,8.6,12.1,253,994.39,-17.5,51,0.27,0.0,1024.54,119.2
2019-03-03 19:30,50.6304483333333,-96.9807583333333,7.2,11.5,252,994.18,-17.2,51,0.27,0.0,1024.28,119.2
2019-03-03 19:40,50.6304516666667,-96.9807683333333,6.9,12.4,244,994.08,-17.1,51,0.27,0.0,1024.16,119.2
2019-03-03 19:50,50.6304483333333,-96.980765,7.4,10.6,249,993.97,-16.7,51,0.28,0.0,1024.00,119.2
2019-03-03 20:00,50.6304466666667,-96.980765,7.8,13.9,258,993.80,-16.6,50,0.28,0.0,1023.82,90.0
2019-03-03 20:10,50.6304583333333,-96.980775,6.9,12.3,256,993.72,-16.3,51,0.28,0.0,1023.71,90.0
2019-03-03 20:20,50.63045,-96.9807466666667,8.7,13.8,249,993.71,-16.2,51,0.29,0.0,1023.67,90.0
2019-03-03 20:30,50.6304183333333,-96.98077,8.4,11.9,238,993.67,-16.4,52,0.29,0.0,1023.63,90.0
2019-03-03 20:40,50.63043,-96.9807733333333,7.2,11.8,236,993.60,-16.4,53,0.30,0.0,1023.54,90.0
2019-03-03 20:50,50.6304383333333,-96.9807766666667,7.7,12.4,252,993.58,-16.0,52,0.30,0.0,1023.47,90.0
2019-03-03 21:00,50.6304383333333,-96.98078,7.6,11.2,281,993.40,-15.5,50,0.30,0.0,1023.25,240.8
2019-03-03 21:10,50.6304383333333,-96.9807783333333,8.5,14.1,283,993.38,-15.4,50,0.30,0.0,1023.22,240.8
2019-03-03 21:20,50.63044,-96.9807766666667,7.9,13.6,283,993.42,-15.7,52,0.31,0.0,1023.26,240.8
2019-03-03 21:30,50.6304416666667,-96.980775,8.8,14.2,274,993.46,-15.9,52,0.31,0.0,1023.31,240.8
2019-03-03 21:40,50.63044,-96.980775,8.7,13.5,289,993.44,-15.8,52,0.32,0.0,1023.26,240.8
2019-03-03 21:50,50.6304416666667,-96.9807733333333,8.1,13.4,284,993.44,-16.1,57,0.32,0.0,1023.26,240.8
2019-03-03 22:00,50.6304383333333,-96.980765,7.5,11.6,280,993.39,-16.1,56,0.33,0.0,1023.20,270.0
2019-03-03 22:10,50.6304516666667,-96.9807783333333,9.3,13.2,267,993.38,-16.3,55,0.33,0.0,1023.20,270.0
2019-03-03 22:20,50.63045,-96.9807783333333,7.6,11.3,261,993.43,-16.3,56,0.33,0.0,1023.26,270.0
2019-03-03 22:30,50.6304366666667,-96.98076,7.0,9.7,272,993.32,-16.1,56,0.33,0.0,1023.13,270.0
2019-03-03 22:40,50.630445,-96.9807716666667,7.8,11.8,268,993.19,-16.1,56,0.33,0.0,1022.97,270.0
2019-03-03 22:50,50.6304416666667,-96.98077,6.5,9.7,263,993.18,-16.2,58,0.33,0.0,1022.94,270.0
2019-03-03 23:00,50.6304383333333,-96.9807683333333,6.1,9.1,267,993.12,-16.3,61,0.34,0.0,1022.88,142.0
2019-03-03 23:10,50.6304366666667,-96.98077,6.5,10.8,272,993.00,-16.0,60,0.34,0.0,1022.75,142.0
2019-03-03 23:20,50.63045,-96.9807466666667,7.2,12.0,269,992.92,-16.1,58,0.35,0.0,1022.70,142.0
2019-03-03 23:30,50.630445,-96.9807616666667,6.6,10.8,261,992.97,-16.2,59,0.35,0.0,1022.75,142.0
2019-03-03 23:40,50.6304416666667,-96.9807683333333,7.0,11.6,264,992.97,-16.3,61,0.36,0.0,1022.76,142.0
2019-03-03 23:50,50.63044,-96.98077,6.1,11.0,262,992.92,-16.7,61,0.36,0.0,1022.74,142.0
